Location: Unspecified
(0.0000°N, 0.0000°E)
Time: 04:51:46
(UTC+00:00)

CANX-2 - Pass Details

Date: 20 May 2026
Orbit: 542 x 558 km, 97.9° (Epoch: 11 June)

Event Time Altitude Azimuth Distance (km) Brightness Sun altitude
Rises 03:17:46 0° 38° (NE) 2,686 ? -36.9°
Reaches altitude 10° 03:20:23 10° 57° (ENE) 1,800 ? -36.3°
Enters shadow 03:21:02 13° 65° (ENE) 1,629 ? -36.2°
